[[{"header":{"parameterUnit":"m.s-1","parameterCategory":1,"la1":30.2992,"la2":30.254,"lo1":-89.0895,"lo2":-89.0443,"dy":0.0025,"dx":0.0025,"nx":19,"ny":19,"refTime":"2026-05-09T09:00:00:Z","depth":0,"parameterNumber":2,"parameterNumberName":"U-component_of_WINDS"},"data":[0,0,0,-2.3828,-2.3828,-2.3811,-2.3811,-2.3806,-2.3806,0,0,0,0,0,0,0,0,0,0,0,-2.3844,-2.3844,-2.3828,-2.3828,-2.3811,-2.3811,-2.3806,-2.3806,0,0,0,0,0,0,0,0,0,0,0,-2.3844,-2.3844,-2.3844,-2.3828,-2.3811,-2.3811,-2.3806,-2.3813,0,0,0,0,0,0,0,0,0,0,-2.3827,-2.3851,-2.3844,-2.3844,-2.3828,-2.3811,-2.3811,-2.3813,-2.3813,-2.3821,0,-2.3832,0,-2.3819,-2.3807,-2.3807,0,0,0,-2.382,-2.3851,-2.3838,-2.3844,-2.3828,-2.3811,-2.3817,-2.3813,-2.3812,-2.3821,-2.3832,-2.3831,-2.3819,-2.3807,-2.3807,-2.3884,-2.3885,0,0,-2.3821,-2.3846,-2.3838,-2.3838,-2.3841,-2.3817,-2.3816,-2.3812,-2.3825,-2.3832,-2.3831,-2.3819,-2.3807,-2.3807,-2.3884,-2.3885,0,0,0,-2.3829,-2.3847,-2.3833,-2.3838,-2.3834,-2.3817,-2.3816,-2.3826,-2.3819,-2.3831,-2.3819,-2.3807,-2.3808,-2.3883,-2.3884,-2.3943,0,0,0,-2.383,-2.3852,-2.3834,-2.3849,-2.3835,-2.383,-2.383,-2.3819,-2.3818,-2.3819,-2.3807,-2.3808,-2.3882,-2.3883,-2.394,-2.3966,0,0,0,-2.3841,-2.3853,-2.3854,-2.385,-2.3844,-2.3829,-2.3822,-2.3818,-2.3811,-2.3807,-2.3808,-2.3881,-2.3883,-2.3936,-2.3961,-2.3993,0,0,0,-2.3861,-2.3907,-2.3856,-2.3903,-2.3844,-2.3866,-2.3822,-2.3837,-2.3841,-2.3808,-2.3882,-2.3884,-2.3936,-2.3958,-2.399,-2.4022,-2.4039,0,0,-2.3933,-2.3917,-2.3942,-2.3896,-2.3933,-2.3867,-2.3913,-2.3893,-2.387,-2.3881,-2.3883,-2.3941,-2.3961,-2.3992,-2.4126,-2.4139,0,0,0,-2.3973,-2.3992,-2.3997,-2.4001,-2.3988,-2.3978,-2.3948,-2.3941,-2.3949,-2.3881,-2.3961,-2.3972,-2.3989,-2.4004,-2.4015,-2.4028,-2.3892,-2.3892,-2.3892,-2.4109,-2.4078,-2.4118,-2.4085,-2.4091,-2.406,-2.4061,-2.4046,-2.4013,-2.4033,-2.4035,-2.412,-2.4138,-2.4146,-2.416,-2.4051,-2.4052,-2.4052,-2.4052,-2.421,-2.423,-2.4187,-2.4209,-2.4177,-2.4196,-2.4169,-2.4145,-2.4158,-2.4116,-2.4129,-2.4084,-2.4162,-2.4172,-2.4056,-2.4055,-2.4055,-2.4055,-2.4054,-2.4293,-2.4298,-2.4289,-2.4293,-2.43,-2.4265,-2.428,-2.425,-2.4221,-2.4235,-2.4234,-2.4232,-2.4226,-2.4237,-2.4237,-2.4238,-2.4238,-2.4238,-2.4238,-2.4383,-2.4371,-2.4386,-2.4377,-2.4376,-2.4372,-2.4343,-2.4341,-2.4332,-2.4309,-2.4308,-2.4273,-2.4176,-2.4151,-2.4243,-2.4242,-2.4241,-2.4241,-2.4241,-2.4493,-2.4464,-2.4488,-2.4488,-2.4474,-2.4482,-2.4445,-2.4444,-2.4439,-2.4447,-2.441,-2.4344,-2.4324,-2.4315,-2.4294,-2.4417,-2.4417,-2.4417,-2.4417,-2.4562,-2.455,-2.4568,-2.457,-2.4567,-2.4536,-2.4565,-2.4544,-2.4517,-2.4512,-2.449,-2.4461,-2.4453,-2.4438,-2.4426,-2.4406,-2.4555,-2.4555,-2.4555,-2.4628,-2.4614,-2.4644,-2.4618,-2.4605,-2.4595,-2.4621,-2.4624,-2.4588,-2.456,-2.4506,-2.4501,-2.4453,-2.4439,-2.4407,-2.4389,-2.4352,0,0]},{"header":{"parameterUnit":"m.s-1","parameterCategory":1,"la1":30.2992,"la2":30.254,"lo1":-89.0895,"lo2":-89.0443,"dy":0.0025,"dx":0.0025,"nx":19,"ny":19,"refTime":"2026-05-09T09:00:00:Z","depth":0,"parameterNumber":3,"parameterNumberName":"V-component_of_WINDS"},"data":[0,0,0,3.2951,3.2953,3.3048,3.3048,3.3173,3.3174,0,0,0,0,0,0,0,0,0,0,0,3.2923,3.2924,3.295,3.2953,3.3048,3.3048,3.3173,3.3174,0,0,0,0,0,0,0,0,0,0,0,3.2923,3.2924,3.2925,3.2953,3.3048,3.3048,3.3173,3.31,0,0,0,0,0,0,0,0,0,0,3.3007,3.2983,3.2924,3.2925,3.2954,3.3048,3.3048,3.3096,3.3104,3.3131,0,3.3154,0,3.3166,3.3183,3.3183,0,0,0,3.2952,3.2976,3.3001,3.2925,3.2955,3.3047,3.3005,3.3101,3.311,3.3142,3.3156,3.316,3.3168,3.3183,3.3184,3.3338,3.3339,0,0,3.2947,3.2941,3.2994,3.3006,3.2991,3.3002,3.3008,3.3106,3.3122,3.3156,3.3163,3.317,3.3184,3.3185,3.3337,3.3338,0,0,0,3.2932,3.2938,3.296,3.3001,3.3018,3.3004,3.3011,3.3117,3.3125,3.3165,3.3172,3.3185,3.3187,3.3336,3.3337,3.337,0,0,0,3.2929,3.2929,3.2957,3.2955,3.3016,3.3069,3.302,3.3118,3.3129,3.3171,3.3185,3.3188,3.3335,3.3337,3.3367,3.3387,0,0,0,3.2917,3.2928,3.2941,3.2954,3.2995,3.3067,3.3081,3.3121,3.3134,3.3183,3.3188,3.3335,3.3337,3.3365,3.3383,3.3428,0,0,0,3.2902,3.2968,3.2942,3.3018,3.2994,3.3086,3.308,3.3148,3.3194,3.3186,3.3336,3.3337,3.3364,3.3381,3.3425,3.3466,3.3482,0,0,3.2983,3.2978,3.3023,3.3002,3.3097,3.3072,3.3172,3.3219,3.3229,3.3301,3.3305,3.3368,3.3383,3.3428,3.3567,3.358,0,0,0,3.3047,3.308,3.3106,3.3149,3.3187,3.3222,3.3254,3.3272,3.3333,3.3265,3.3395,3.3404,3.343,3.3451,3.3461,3.3485,3.3345,3.3345,3.3345,3.3154,3.3163,3.3239,3.326,3.3302,3.3335,3.3371,3.34,3.3397,3.3427,3.345,3.3534,3.3557,3.3565,3.359,3.347,3.347,3.347,3.347,3.3275,3.3324,3.3317,3.3389,3.3399,3.346,3.3494,3.3489,3.3549,3.3517,3.3541,3.3508,3.3578,3.3601,3.3472,3.3472,3.3472,3.3471,3.3471,3.3349,3.3374,3.3394,3.3458,3.3506,3.3524,3.3582,3.3587,3.3593,3.3616,3.3642,3.3642,3.3644,3.3627,3.3628,3.3628,3.3628,3.3628,3.3629,3.3419,3.344,3.3487,3.3532,3.3562,3.3601,3.3634,3.3663,3.3697,3.3697,3.3697,3.3693,3.3582,3.3556,3.3633,3.3632,3.3632,3.3631,3.3631,3.3544,3.3516,3.3589,3.3619,3.3673,3.3722,3.3727,3.3786,3.3811,3.384,3.3829,3.3745,3.3741,3.3733,3.3712,3.3825,3.3825,3.3825,3.3825,3.3609,3.3606,3.3683,3.373,3.3775,3.3788,3.3872,3.3899,3.3922,3.3939,3.3922,3.3893,3.3884,3.3886,3.3874,3.3855,3.4002,3.4002,3.4002,3.3687,3.3689,3.376,3.3782,3.3824,3.3861,3.3942,3.3997,3.4017,3.4009,3.3952,3.3945,3.3898,3.3882,3.3876,3.3858,3.3822,0,0]}]]